This is the latest recevied weather packets stored in our database for station/object EA2RCU-15. If no packets are shown the sender has not sent any weather packets the latest 10 day(s).
| Time | Temp. | Humidity | Pressure | Rain* | Wind** | Luminosity | Snow |
|---|---|---|---|---|---|---|---|
| 1777230305 | 18.89° C | 47% | 1002 hPa | 0 mm | - | - | - |
| 1777230004 | 18.89° C | 45% | 1002 hPa | 0 mm | - | - | - |
| 1777229704 | 19.44° C | 45% | 1002 hPa | 0 mm | - | - | - |
| 1777229405 | 19.44° C | 44% | 1002 hPa | 0 mm | - | - | - |
| 1777229104 | 20° C | 42% | 1002 hPa | 0 mm | - | - | - |
| 1777228804 | 20.56° C | 41% | 1002 hPa | 0 mm | - | - | - |
| 1777228504 | 20.56° C | 39% | 1002 hPa | 0 mm | - | - | - |
| 1777228205 | 21.11° C | 38% | 1002 hPa | 0 mm | - | - | - |
| 1777227905 | 21.11° C | 35% | 1002 hPa | 0 mm | - | - | - |
| 1777227604 | 22.22° C | 33% | 1002 hPa | 0 mm | - | - | - |
| 1777227305 | 23.33° C | 31% | 1002 hPa | 0 mm | - | - | - |
| 1777227005 | 25° C | 26% | 1002 hPa | 0 mm | - | - | - |
| 1777226704 | 27.78° C | 22% | 1002 hPa | 0 mm | - | - | - |
| 1777226404 | 29.44° C | 20% | 1002 hPa | 0 mm | - | - | - |
| 1777226105 | 29.44° C | 20% | 1002 hPa | 0 mm | - | - | - |
| 1777225804 | 30.56° C | 19% | 1002 hPa | 0 mm | - | - | - |
| 1777225505 | 31.67° C | 19% | 1002 hPa | 0 mm | - | - | - |
| 1777225204 | 32.22° C | 18% | 1002 hPa | 0 mm | - | - | - |
| 1777224905 | 32.78° C | 18% | 1002 hPa | 0 mm | - | - | - |
| 1777224604 | 32.22° C | 18% | 1002 hPa | 0 mm | - | - | - |
| 1777224305 | 32.22° C | 18% | 1001 hPa | 0 mm | - | - | - |
| 1777224004 | 32.22° C | 18% | 1001 hPa | 0 mm | - | - | - |
| 1777223704 | 32.78° C | 18% | 1001 hPa | 0 mm | - | - | - |
| 1777223404 | 32.78° C | 18% | 1001 hPa | 0 mm | - | - | - |
| 1777223105 | 32.22° C | 18% | 1001 hPa | 0 mm | - | - | - |
* Rain latest hour (hover to see other rain measurements)
** Current wind speed in m/s (hover to see current wind gust speed)